DW7126 Lourinha PT current weather conditions

sailwx.info

Wind from 060

Air temperature 20.6° C
Dewpoint 16.8° C

Last reported at 2014-Oct-21 22:10 UTC.
Time now 2014-Oct-22 01:43 UTC

Location: N 39°14' W 009°18'.
View on Google Maps.

See reports from other nearby stations

  
Tides and Currents Weather Stations Pressure Air Temp Water Temp Dewpoint Dewpoint Depression Visibility Wind Speed Wind Dir Waves Ship Positions
date/time (UTC)wind fromknots sea level pressurealtimeterstation pressurevisibilityair tempwater tempwave heightnotes
2014-Oct-21 22:10 060 20.6
2014-Oct-21 22:05 060 20.6
2014-Oct-21 22:00 060 21.1
2014-Oct-21 21:55 060 21.1
2014-Oct-21 21:50 060 21.1
2014-Oct-21 21:45 060 21.1
2014-Oct-21 21:40 060 20.6
2014-Oct-21 21:35 060 20.6
2014-Oct-21 21:30 059 20.0
2014-Oct-21 21:25 059 20.0
2014-Oct-21 21:20 059 20.0
2014-Oct-21 21:15 059 20.0
2014-Oct-21 21:10 059 20.0
2014-Oct-21 21:05 059 20.0
2014-Oct-21 21:00 059 20.0
2014-Oct-21 20:55 059 20.6
2014-Oct-21 20:50 059 20.6
2014-Oct-21 20:45 059 20.6
2014-Oct-21 20:40 059 20.6
2014-Oct-21 20:35 059 20.6
2014-Oct-21 20:30 059 20.6
2014-Oct-21 20:25 059 20.6
2014-Oct-21 20:20 059 20.6
2014-Oct-21 20:15 059 20.6
2014-Oct-21 20:10 059 20.6
2014-Oct-21 20:05 059 20.6
2014-Oct-21 20:00 059 20.6
2014-Oct-21 19:55 059 20.6
2014-Oct-21 19:50 059 20.0
2014-Oct-21 19:45 059 20.6
2014-Oct-21 19:40 059 21.1
2014-Oct-21 19:35 059 21.1
2014-Oct-21 19:30 059 21.1
2014-Oct-21 19:25 059 21.7
2014-Oct-21 19:20 059 1 gusting 3 21.7
2014-Oct-21 19:15 037 21.7
2014-Oct-21 19:10 037 21.7
2014-Oct-21 19:05 037 21.7
2014-Oct-21 19:00 037 21.7
2014-Oct-21 18:55 037 21.7
2014-Oct-21 18:50 037 22.2
2014-Oct-21 18:45 042 22.2
2014-Oct-21 18:40 005 1 gusting 6 22.8
2014-Oct-21 18:35 025 0 gusting 2 23.3
2014-Oct-21 18:30 030 23.3
2014-Oct-21 18:25 034 23.3
2014-Oct-21 18:20 034 23.9
2014-Oct-21 18:15 034 24.4
2014-Oct-21 18:10 034 25.0
2014-Oct-21 18:05 034 25.0
2014-Oct-21 18:00 034 25.6
2014-Oct-21 17:55 034 25.6
2014-Oct-21 17:50 034 25.6
2014-Oct-21 17:45 034 25.6
2014-Oct-21 17:40 034 26.1
2014-Oct-21 17:35 034 26.1
2014-Oct-21 17:30 033 26.7
2014-Oct-21 17:25 033 27.2
2014-Oct-21 17:20 033 27.2
2014-Oct-21 17:15 033 27.8
2014-Oct-21 17:10 034 27.8
2014-Oct-21 17:05 034 0 gusting 2 27.8
2014-Oct-21 17:00 035 28.3
2014-Oct-21 16:55 035 28.3
2014-Oct-21 16:50 042 2 gusting 4 28.3
2014-Oct-21 16:45 030 1 gusting 4 28.3
2014-Oct-21 16:40 056 0 gusting 2 28.3
2014-Oct-21 16:35 060 0 gusting 3 28.3
2014-Oct-21 16:30 060 1 gusting 3 28.9
2014-Oct-21 16:25 059 1 gusting 3 28.9
2014-Oct-21 16:20 063 0 gusting 4 29.4
2014-Oct-21 16:15 065 2 gusting 6 28.9
2014-Oct-21 16:10 076 2 gusting 6 28.9
2014-Oct-21 16:05 080 3 gusting 6 29.4
2014-Oct-21 16:00 085 3 gusting 4 29.4
2014-Oct-21 15:55 086 1 gusting 5 29.4
2014-Oct-21 15:50 082 1 gusting 3 30.0
2014-Oct-21 15:45 093 0 gusting 2 30.0
2014-Oct-21 15:40 093 0 gusting 2 30.0
2014-Oct-21 15:35 093 0 gusting 4 30.0
2014-Oct-21 15:30 098 1 gusting 4 30.0
2014-Oct-21 15:25 058 2 gusting 4 30.6
2014-Oct-21 15:20 054 0 gusting 3 30.6
2014-Oct-21 15:10 005 30.0
2014-Oct-21 15:05 005 30.0
2014-Oct-21 15:00 005 29.4
2014-Oct-21 14:40 055 1 gusting 6 30.0
2014-Oct-21 14:35 059 2 gusting 6 30.0
2014-Oct-21 14:30 059 2 gusting 5 30.0
2014-Oct-21 14:25 068 2 gusting 6 30.0
2014-Oct-21 14:20 055 5 gusting 6 30.0
2014-Oct-21 14:15 055 4 gusting 7 30.0
2014-Oct-21 14:10 065 5 gusting 7 30.0
2014-Oct-21 14:05 053 5 gusting 7 30.0
2014-Oct-21 14:00 040 5 gusting 7 29.4
2014-Oct-21 13:40 094 5 gusting 8 29.4
2014-Oct-21 13:35 062 5 gusting 8 29.4
2014-Oct-21 13:30 063 6 gusting 8 29.4
2014-Oct-21 13:25 067 6 gusting 8 29.4
2014-Oct-21 13:20 062 5 gusting 7 29.4
2014-Oct-21 13:15 056 5 gusting 8 29.4
2014-Oct-21 13:10 071 3 gusting 6 29.4
2014-Oct-21 13:05 069 5 gusting 7 29.4
2014-Oct-21 13:00 053 5 gusting 8 29.4
2014-Oct-21 12:55 050 4 gusting 9 28.9
2014-Oct-21 12:50 083 6 gusting 9 28.9
2014-Oct-21 12:45 055 6 gusting 11 28.9
2014-Oct-21 12:40 059 6 gusting 11 28.9
2014-Oct-21 12:35 051 4 gusting 8 28.9
2014-Oct-21 12:30 086 6 gusting 8 28.9
2014-Oct-21 12:25 055 4 gusting 9 28.3
2014-Oct-21 12:20 090 5 gusting 9 27.8
2014-Oct-21 12:15 109 6 gusting 9 27.8
2014-Oct-21 12:10 360 5 gusting 8 27.8
2014-Oct-21 12:05 075 4 gusting 7 27.8
2014-Oct-21 12:00 080 5 gusting 9 27.8
2014-Oct-21 11:55 046 6 gusting 10 27.8
2014-Oct-21 11:50 073 3 gusting 7 27.8
2014-Oct-21 11:45 073 4 gusting 9 27.8
2014-Oct-21 11:40 069 5 gusting 10 27.2
2014-Oct-21 11:35 083 6 gusting 10 27.2
2014-Oct-21 11:30 080 4 gusting 8 27.2
2014-Oct-21 11:25 061 4 gusting 8 27.2
2014-Oct-21 11:20 067 6 gusting 8 27.2
2014-Oct-21 11:15 090 3 gusting 6 27.2
2014-Oct-21 11:10 082 0 gusting 2 27.8
2014-Oct-21 11:05 070 0 gusting 2 27.8
2014-Oct-21 11:00 071 27.2
2014-Oct-21 10:55 071 0 gusting 3 26.7
2014-Oct-21 10:50 072 26.7
2014-Oct-21 10:45 072 26.1
2014-Oct-21 10:40 072 0 gusting 2 25.6
2014-Oct-21 10:35 069 25.6
2014-Oct-21 10:30 066 0 gusting 3 25.6
2014-Oct-21 10:25 053 1 gusting 3 25.0
2014-Oct-21 10:20 063 1 gusting 3 25.0
2014-Oct-21 10:15 065 0 gusting 3 25.0
2014-Oct-21 10:10 063 1 gusting 3 25.0
2014-Oct-21 10:05 062 0 gusting 3 24.4
2014-Oct-21 10:00 062 0 gusting 3 24.4
2014-Oct-21 09:55 078 0 gusting 2 24.4
2014-Oct-21 09:50 079 0 gusting 4 24.4
2014-Oct-21 09:45 081 1 gusting 3 23.9
2014-Oct-21 09:40 088 1 gusting 4 23.9
2014-Oct-21 09:35 157 23.9
2014-Oct-21 09:30 240 23.3
2014-Oct-21 09:25 240 0 gusting 6 23.3
2014-Oct-21 09:20 105 23.3
2014-Oct-21 09:15 094 2 gusting 6 22.8
2014-Oct-21 09:10 088 4 gusting 7 22.8
2014-Oct-21 09:05 082 5 gusting 7 22.8
2014-Oct-21 09:00 105 2 gusting 4 22.8
2014-Oct-21 08:55 086 22.2
2014-Oct-21 08:50 080 22.2
2014-Oct-21 08:45 091 1 gusting 4 21.7
2014-Oct-21 08:40 221 0 gusting 5 21.7
2014-Oct-21 08:35 100 21.7
2014-Oct-21 08:30 276 0 gusting 8 21.7
2014-Oct-21 08:25 162 3 gusting 10 22.2
2014-Oct-21 08:20 101 6 gusting 10 21.7
2014-Oct-21 08:15 112 6 gusting 11 21.7
2014-Oct-21 08:10 085 6 gusting 11 22.2
2014-Oct-21 08:05 110 5 gusting 12 21.7
2014-Oct-21 08:00 103 6 gusting 12 21.7
2014-Oct-21 07:55 089 7 gusting 13 21.7
2014-Oct-21 07:50 085 8 gusting 13 21.7
2014-Oct-21 07:45 099 7 gusting 13 21.7
2014-Oct-21 07:40 112 7 gusting 13 21.1
2014-Oct-21 07:35 126 7 gusting 12 21.1
2014-Oct-21 07:30 098 6 gusting 13 21.1
2014-Oct-21 07:25 096 7 gusting 13 21.1
2014-Oct-21 07:20 093 7 gusting 11 21.1
2014-Oct-21 07:15 084 6 gusting 12 20.6
2014-Oct-21 07:10 084 7 gusting 13 20.6
2014-Oct-21 07:05 094 9 gusting 13 20.6
2014-Oct-21 07:00 094 8 gusting 12 20.6
2014-Oct-21 06:55 088 8 gusting 11 20.6
2014-Oct-21 06:50 102 4 gusting 8 20.6
2014-Oct-21 06:45 113 1 gusting 8 20.6
2014-Oct-21 06:40 138 3 gusting 6 20.6
2014-Oct-21 06:35 134 2 gusting 6 20.6
2014-Oct-21 06:30 148 1 gusting 7 20.6
2014-Oct-21 06:25 092 1 gusting 7 20.6
2014-Oct-21 06:20 123 5 gusting 8 20.6
2014-Oct-21 06:15 111 2 gusting 6 20.6
2014-Oct-21 06:10 119 1 gusting 6 20.6
2014-Oct-21 06:05 120 20.6
2014-Oct-21 06:00 128 1 gusting 6 20.6
2014-Oct-21 05:55 136 0 gusting 4 20.6
2014-Oct-21 05:50 123 20.6
2014-Oct-21 05:45 092 0 gusting 6 20.6
2014-Oct-21 05:40 106 3 gusting 6 21.1
2014-Oct-21 05:35 105 21.1
2014-Oct-21 05:30 127 0 gusting 4 20.6
2014-Oct-21 05:25 157 20.6
2014-Oct-21 05:20 098 20.6
2014-Oct-21 05:15 128 1 gusting 6 21.1
2014-Oct-21 05:10 137 1 gusting 9 21.1
2014-Oct-21 05:05 106 4 gusting 9 21.1
2014-Oct-21 05:00 099 5 gusting 9 21.1
2014-Oct-21 04:55 098 5 gusting 8 21.1
2014-Oct-21 04:50 105 4 gusting 8 21.1
2014-Oct-21 04:45 120 0 gusting 4 21.1
2014-Oct-21 04:40 148 0 gusting 4 21.1
2014-Oct-21 04:35 109 0 gusting 2 21.1
2014-Oct-21 04:30 114 21.1
2014-Oct-21 04:25 121 0 gusting 8 21.1
2014-Oct-21 04:20 082 0 gusting 10 21.1
2014-Oct-21 04:15 105 6 gusting 12 21.1
2014-Oct-21 04:10 101 7 gusting 13 21.1
2014-Oct-21 04:05 094 8 gusting 13 21.7
2014-Oct-21 04:00 096 8 gusting 14 21.7
2014-Oct-21 03:55 094 9 gusting 14 21.7
2014-Oct-21 03:50 112 10 gusting 13 21.7
2014-Oct-21 03:45 095 10 gusting 13 21.7
2014-Oct-21 03:40 092 9 gusting 13 21.7
2014-Oct-21 03:35 088 7 gusting 12 21.7
2014-Oct-21 03:30 090 7 gusting 12 21.7
2014-Oct-21 03:25 087 7 gusting 12 21.7
2014-Oct-21 03:20 127 5 gusting 9 21.1
2014-Oct-21 03:15 106 6 gusting 9 21.1
2014-Oct-21 03:10 099 6 gusting 9 21.1
2014-Oct-21 03:05 128 3 gusting 9 21.1
2014-Oct-21 03:00 109 5 gusting 9 21.7
2014-Oct-21 02:55 360 6 gusting 9 21.7
2014-Oct-21 02:50 113 6 gusting 12 21.7
2014-Oct-21 02:45 091 7 gusting 12 21.7
2014-Oct-21 02:40 101 6 gusting 9 21.7
2014-Oct-21 02:35 111 4 gusting 10 21.7
2014-Oct-21 02:30 104 6 gusting 10 21.7
2014-Oct-21 02:25 092 6 gusting 8 21.7
2014-Oct-21 02:20 108 0 gusting 5 21.7
2014-Oct-21 02:15 101 0 gusting 5 21.7
2014-Oct-21 02:10 107 21.7
2014-Oct-21 02:05 083 22.2
2014-Oct-21 02:00 113 3 gusting 8 22.2
2014-Oct-21 01:55 102 5 gusting 8 22.2
2014-Oct-21 01:50 103 5 gusting 10 22.8
2014-Oct-21 01:45 115 5 gusting 10 22.8
2014-Oct-21 01:40 112 7 gusting 10 22.8
2014-Oct-21 01:35 110 7 gusting 10 22.8
2014-Oct-21 01:30 360 7 gusting 10 22.8
2014-Oct-21 01:25 124 6 gusting 12 22.8
2014-Oct-21 01:20 119 7 gusting 12 23.3
2014-Oct-21 01:15 121 7 gusting 11 23.3
2014-Oct-21 01:10 116 6 gusting 10 22.8
2014-Oct-21 01:05 109 6 gusting 9 22.2
2014-Oct-21 01:00 098 6 gusting 9 22.8
2014-Oct-21 00:55 123 6 gusting 10 23.3
2014-Oct-21 00:50 104 7 gusting 12 23.3
2014-Oct-21 00:45 089 7 gusting 12 23.3
2014-Oct-21 00:40 104 6 gusting 11 23.3
2014-Oct-21 00:35 101 6 gusting 11 23.3
2014-Oct-21 00:30 106 6 gusting 11 23.3
2014-Oct-21 00:25 090 5 gusting 9 22.8
2014-Oct-21 00:20 102 3 gusting 9 22.8
2014-Oct-21 00:15 117 5 gusting 10 22.8
2014-Oct-21 00:10 084 6 gusting 10 23.3
2014-Oct-21 00:05 105 7 gusting 10 22.8
2014-Oct-21 00:00 360 6 gusting 9 22.8
2014-Oct-20 23:55 107 6 gusting 8 22.8
2014-Oct-20 23:50 111 6 gusting 8 22.8
2014-Oct-20 23:45 105 6 gusting 9 22.2
2014-Oct-20 23:40 107 6 gusting 9 22.2
2014-Oct-20 23:35 102 6 gusting 8 22.8
2014-Oct-20 23:31 099 6 gusting 8 22.8
2014-Oct-20 23:25 099 5 gusting 8 22.8
2014-Oct-20 23:20 124 5 gusting 8 23.3
2014-Oct-20 23:15 117 6 gusting 9 22.8
2014-Oct-20 23:10 360 6 gusting 8 22.2
2014-Oct-20 23:05 128 6 gusting 8 22.2
2014-Oct-20 23:00 360 5 gusting 8 21.7
2014-Oct-20 22:55 121 5 gusting 8 20.6
2014-Oct-20 22:50 360 3 gusting 6 19.4
2014-Oct-20 22:45 088 2 gusting 5 18.9
2014-Oct-20 22:40 131 18.3
2014-Oct-20 22:35 134 18.3
2014-Oct-20 22:30 135 18.3
2014-Oct-20 22:25 135 18.9
2014-Oct-20 22:20 135 18.9
2014-Oct-20 22:15 140 18.9
2014-Oct-20 22:10 140 19.4
2014-Oct-20 22:05 164 19.4
2014-Oct-20 22:00 192 19.4
2014-Oct-20 21:55 192 19.4
2014-Oct-20 21:50 192 19.4
2014-Oct-20 21:45 192 19.4
2014-Oct-20 21:40 192 18.9
2014-Oct-20 21:35 192 18.9
2014-Oct-20 21:30 192 18.9
2014-Oct-20 21:25 107 0 gusting 2 19.4
2014-Oct-20 21:20 105 20.0
2014-Oct-20 21:15 106 20.0
2014-Oct-20 21:10 106 1 gusting 3 20.0
2014-Oct-20 21:05 066 21.7
2014-Oct-20 21:00 066 22.2
2014-Oct-20 20:55 134 21.7
2014-Oct-20 20:50 188 21.1
2014-Oct-20 20:45 188 20.6
2014-Oct-20 20:40 188 0 gusting 3 20.6
2014-Oct-20 20:35 184 1 gusting 3 20.0
2014-Oct-20 20:30 088 20.0
2014-Oct-20 20:15 077 21.1
2014-Oct-20 20:05 077 20.6
2014-Oct-20 20:00 077 20.6
2014-Oct-20 19:55 077 21.1
2014-Oct-20 19:50 077 21.1
2014-Oct-20 19:45 077 21.1
2014-Oct-20 19:40 077 21.1
2014-Oct-20 19:35 077 21.1
2014-Oct-20 19:30 077 21.1
2014-Oct-20 19:25 077 21.1
2014-Oct-20 19:20 077 22.2
2014-Oct-20 19:15 077 22.2
2014-Oct-20 19:10 077 22.2
2014-Oct-20 19:05 077 22.2
2014-Oct-20 19:00 077 22.8
2014-Oct-20 18:55 077 22.8
2014-Oct-20 18:50 077 23.3
2014-Oct-20 18:45 078 1 gusting 3 23.3
2014-Oct-20 18:40 185 23.3
2014-Oct-20 18:35 185 23.9
2014-Oct-20 18:30 185 23.9
2014-Oct-20 18:25 185 24.4
2014-Oct-20 18:20 184 2 gusting 4 23.9
2014-Oct-20 18:15 176 3 gusting 3 23.9
2014-Oct-20 18:10 119 24.4
2014-Oct-20 18:05 114 25.0
2014-Oct-20 18:00 114 25.6
2014-Oct-20 17:55 114 25.6
2014-Oct-20 17:50 113 0 gusting 6 25.6
2014-Oct-20 17:45 110 1 gusting 6 26.1
2014-Oct-20 17:40 112 3 gusting 6 26.1
2014-Oct-20 17:35 097 3 gusting 6 26.1
2014-Oct-20 17:30 087 3 gusting 6 26.1
2014-Oct-20 17:25 096 1 gusting 7 26.1
2014-Oct-20 17:20 094 6 gusting 7 26.7
2014-Oct-20 17:15 081 4 gusting 6 26.7
2014-Oct-20 17:10 088 5 gusting 8 26.7
2014-Oct-20 17:05 071 6 gusting 9 26.7
2014-Oct-20 17:00 080 6 gusting 9 27.2
2014-Oct-20 16:55 092 6 gusting 8 27.2
2014-Oct-20 16:50 082 5 gusting 7 27.2
2014-Oct-20 16:45 105 5 gusting 7 27.2
2014-Oct-20 16:40 083 6 gusting 8 27.2
2014-Oct-20 16:35 083 6 gusting 8 27.8
2014-Oct-20 16:30 075 5 gusting 8 27.8
2014-Oct-20 16:25 075 5 gusting 9 27.8
2014-Oct-20 16:20 095 6 gusting 9 27.8
2014-Oct-20 16:15 360 6 gusting 8 27.8
2014-Oct-20 16:10 073 5 gusting 9 28.3
2014-Oct-20 16:05 087 6 gusting 12 28.3
2014-Oct-20 16:00 360 6 gusting 12 28.3
2014-Oct-20 15:55 092 6 gusting 13 28.3
2014-Oct-20 15:50 090 8 gusting 13 28.3
2014-Oct-20 15:45 092 8 gusting 12 28.3
2014-Oct-20 15:40 082 5 gusting 9 28.3
2014-Oct-20 15:35 046 6 gusting 9 28.3
2014-Oct-20 15:30 088 1 gusting 7 28.3
2014-Oct-20 15:25 066 4 gusting 10 28.3
2014-Oct-20 15:20 360 5 gusting 10 28.3
2014-Oct-20 15:15 076 6 gusting 12 28.3
2014-Oct-20 15:10 074 8 gusting 12 28.3
2014-Oct-20 15:05 065 8 gusting 13 28.3
2014-Oct-20 15:00 090 8 gusting 13 28.3
2014-Oct-20 14:55 107 8 gusting 13 28.3
2014-Oct-20 14:50 077 7 gusting 13 28.3
2014-Oct-20 14:45 065 8 gusting 13 28.3
2014-Oct-20 14:40 094 8 gusting 12 28.3
2014-Oct-20 14:35 091 9 gusting 13 28.3
2014-Oct-20 14:30 053 6 gusting 9 28.9
2014-Oct-20 14:25 091 6 gusting 11 28.9
2014-Oct-20 14:20 084 6 gusting 11 28.9
2014-Oct-20 14:15 103 6 gusting 13 28.9
2014-Oct-20 14:10 077 6 gusting 13 28.9
2014-Oct-20 14:05 097 7 gusting 13 28.9
2014-Oct-20 14:00 078 7 gusting 12 28.9
2014-Oct-20 13:55 101 6 gusting 12 28.9
2014-Oct-20 13:50 360 8 gusting 11 28.3
2014-Oct-20 13:45 094 7 gusting 14 28.3
2014-Oct-20 13:40 360 8 gusting 14 28.3
2014-Oct-20 13:35 088 8 gusting 12 28.3
2014-Oct-20 13:30 100 8 gusting 12 28.3
2014-Oct-20 13:25 093 7 gusting 12 28.3
2014-Oct-20 13:20 115 6 gusting 13 27.8
2014-Oct-20 13:15 360 8 gusting 13 27.8
2014-Oct-20 13:10 090 10 gusting 15 27.8
2014-Oct-20 13:05 088 10 gusting 15 27.8
2014-Oct-20 13:00 071 9 gusting 13 27.2
2014-Oct-20 12:55 078 10 gusting 15 27.2
2014-Oct-20 12:50 094 11 gusting 15 27.2
2014-Oct-20 12:45 103 9 gusting 15 27.2
2014-Oct-20 12:40 086 12 gusting 15 27.2
2014-Oct-20 12:35 091 11 gusting 14 27.2
2014-Oct-20 12:30 090 10 gusting 13 27.2
2014-Oct-20 12:25 107 10 gusting 13 27.2
2014-Oct-20 12:20 360 9 gusting 13 27.2
2014-Oct-20 12:15 087 9 gusting 13 27.2
2014-Oct-20 12:10 090 11 gusting 18 26.7
2014-Oct-20 12:05 092 13 gusting 18 26.7
2014-Oct-20 12:00 084 13 gusting 18 26.7
2014-Oct-20 11:55 076 9 gusting 14 26.7
2014-Oct-20 11:50 096 11 gusting 14 26.7
2014-Oct-20 11:45 093 8 gusting 14 26.1
2014-Oct-20 11:40 097 11 gusting 14 26.1
2014-Oct-20 11:35 088 9 gusting 14 26.1
2014-Oct-20 11:30 103 10 gusting 13 26.1
2014-Oct-20 11:25 112 11 gusting 16 25.6
2014-Oct-20 11:20 360 11 gusting 16 25.6
2014-Oct-20 11:15 360 11 gusting 15 25.6
2014-Oct-20 11:10 079 13 gusting 19 25.6
2014-Oct-20 11:05 101 11 gusting 19 25.6
2014-Oct-20 11:00 079 11 gusting 16 25.0
2014-Oct-20 10:55 109 12 gusting 18 25.0
2014-Oct-20 10:50 090 9 gusting 18 25.0
2014-Oct-20 10:45 096 11 gusting 14 25.0
2014-Oct-20 10:40 092 10 gusting 16 25.0
2014-Oct-20 10:35 111 11 gusting 15 25.0
2014-Oct-20 10:30 076 13 gusting 16 24.4
2014-Oct-20 10:25 092 12 gusting 16 24.4
2014-Oct-20 10:20 098 13 gusting 16 24.4
2014-Oct-20 10:15 096 10 gusting 19 24.4
2014-Oct-20 10:10 092 12 gusting 19 23.9
2014-Oct-20 10:05 093 13 gusting 19 23.9
2014-Oct-20 10:00 088 13 gusting 16 23.9
2014-Oct-20 09:55 107 12 gusting 19 23.9
2014-Oct-20 09:50 088 14 gusting 19 23.9
2014-Oct-20 09:45 111 12 gusting 19 23.3
2014-Oct-20 09:40 077 13 gusting 21 23.3
2014-Oct-20 09:35 090 14 gusting 21 23.3
2014-Oct-20 09:30 086 13 gusting 18 22.8
2014-Oct-20 09:25 089 14 gusting 20 22.8
2014-Oct-20 09:20 107 13 gusting 20 22.8
2014-Oct-20 09:15 360 14 gusting 20 22.8
2014-Oct-20 09:10 360 14 gusting 20 22.2
2014-Oct-20 09:05 107 15 gusting 21 22.2
2014-Oct-20 09:00 092 15 gusting 21 22.2
2014-Oct-20 08:55 082 14 gusting 21 22.2
2014-Oct-20 08:50 093 14 gusting 20 21.7
2014-Oct-20 08:45 360 15 gusting 19 21.7
2014-Oct-20 08:40 101 15 gusting 21 21.7
2014-Oct-20 08:35 105 14 gusting 21 21.1
2014-Oct-20 08:30 092 14 gusting 21 21.1
2014-Oct-20 08:25 094 14 gusting 21 21.1
2014-Oct-20 08:20 095 14 gusting 19 21.1
2014-Oct-20 08:15 096 14 gusting 19 20.6
2014-Oct-20 08:10 360 14 gusting 19 20.6
2014-Oct-20 08:05 107 13 gusting 19 20.6
2014-Oct-20 08:00 092 13 gusting 19 20.6
2014-Oct-20 07:55 091 14 gusting 19 20.6
2014-Oct-20 07:50 083 13 gusting 18 20.6
2014-Oct-20 07:45 092 14 gusting 19 20.6
2014-Oct-20 07:40 089 13 gusting 19 20.0
2014-Oct-20 07:35 079 14 gusting 19 20.0
2014-Oct-20 07:30 083 13 gusting 16 20.0
2014-Oct-20 07:25 089 13 gusting 19 20.0
2014-Oct-20 07:20 088 13 gusting 18 20.0
2014-Oct-20 07:15 096 12 gusting 15 20.0
2014-Oct-20 07:10 095 12 gusting 15 20.0
2014-Oct-20 07:05 091 12 gusting 16 20.0
2014-Oct-20 07:00 112 10 gusting 15 20.0
2014-Oct-20 06:55 097 10 gusting 18 20.0
2014-Oct-20 06:50 100 9 gusting 18 20.0
2014-Oct-20 06:45 089 10 gusting 16 20.0
2014-Oct-20 06:40 078 13 gusting 16 20.6
2014-Oct-20 06:35 081 12 gusting 15 20.6
2014-Oct-20 06:30 090 11 gusting 18 20.6
2014-Oct-20 06:25 094 10 gusting 18 20.6
2014-Oct-20 06:20 099 11 gusting 19 20.6
2014-Oct-20 06:15 089 13 gusting 19 20.6
2014-Oct-20 06:10 085 14 gusting 19 20.6
2014-Oct-20 06:05 101 13 gusting 19 20.6
2014-Oct-20 06:00 097 13 gusting 16 20.6
2014-Oct-20 05:55 090 13 gusting 19 20.6
2014-Oct-20 05:50 107 14 gusting 19 20.6
2014-Oct-20 05:45 095 13 gusting 18 20.6
2014-Oct-20 05:40 080 13 gusting 19 20.6
2014-Oct-20 05:35 096 11 gusting 19 20.6
2014-Oct-20 05:30 088 13 gusting 19 21.1
2014-Oct-20 05:25 088 13 gusting 15 20.6
2014-Oct-20 05:20 112 12 gusting 16 21.1
2014-Oct-20 05:15 099 11 gusting 15 21.1
2014-Oct-20 05:10 104 11 gusting 14 21.1
2014-Oct-20 05:05 098 11 gusting 13 21.1
2014-Oct-20 05:00 091 9 gusting 14 21.1
2014-Oct-20 04:55 096 8 gusting 14 20.6
2014-Oct-20 04:50 100 9 gusting 13 20.6
2014-Oct-20 04:45 104 6 gusting 9 20.6
2014-Oct-20 04:40 098 20.6
2014-Oct-20 04:35 096 20.0
2014-Oct-20 04:30 071 20.0
2014-Oct-20 04:25 071 0 gusting 6 20.6
2014-Oct-20 04:20 088 2 gusting 6 20.6
2014-Oct-20 04:15 080 5 gusting 7 20.6
2014-Oct-20 04:10 092 2 gusting 7 20.6
2014-Oct-20 04:05 074 4 gusting 6 20.6
2014-Oct-20 04:00 078 3 gusting 9 20.6
2014-Oct-20 03:55 067 6 gusting 11 20.6
2014-Oct-20 03:50 062 6 gusting 12 20.6
2014-Oct-20 03:45 090 7 gusting 12 20.6
2014-Oct-20 03:40 089 7 gusting 12 20.6
2014-Oct-20 03:35 100 8 gusting 12 21.1
2014-Oct-20 03:30 099 7 gusting 14 21.1
2014-Oct-20 03:25 088 9 gusting 14 21.1
2014-Oct-20 03:20 096 10 gusting 15 21.1
2014-Oct-20 03:15 094 11 gusting 15 21.1
2014-Oct-20 03:10 103 12 gusting 15 21.1
2014-Oct-20 03:05 087 11 gusting 14 21.7
2014-Oct-20 03:00 111 10 gusting 14 21.7
2014-Oct-20 02:55 108 11 gusting 14 21.7
2014-Oct-20 02:50 087 10 gusting 13 21.7
2014-Oct-20 02:45 094 9 gusting 13 21.7
2014-Oct-20 02:40 101 9 gusting 13 22.2
2014-Oct-20 02:35 095 9 gusting 13 21.7
2014-Oct-20 02:30 093 9 gusting 13 22.2
2014-Oct-20 02:25 101 9 gusting 14 22.2
2014-Oct-20 02:20 105 10 gusting 14 22.2
2014-Oct-20 02:15 112 10 gusting 13 22.2
2014-Oct-20 02:10 099 11 gusting 14 22.2
2014-Oct-20 02:05 109 10 gusting 14 22.2
2014-Oct-20 02:00 095 11 gusting 13 22.2
2014-Oct-20 01:55 090 10 gusting 15 22.2
2014-Oct-20 01:50 108 10 gusting 15 22.8
2014-Oct-20 01:45 112 10 gusting 16 22.8
2014-Oct-20 01:40 360 12 gusting 15 22.8
2014-Oct-20 01:35 103 11 gusting 16 22.8
2014-Oct-20 01:30 102 12 gusting 16 22.8
2014-Oct-20 01:25 098 11 gusting 14 22.8
2014-Oct-20 01:20 091 10 gusting 13 22.8
2014-Oct-20 01:15 100 10 gusting 15 22.8
2014-Oct-20 01:10 100 11 gusting 16 22.8
2014-Oct-20 01:05 088 12 gusting 18 22.8
2014-Oct-20 01:00 117 11 gusting 18 22.8